Location: Peterborough
(44.3091°N, 78.3197°W)
Time: 10:40:29
(UTC-04:00)

A-11 Canister half - Pass Details

Date: 21 September 2024
Orbit: 1515 x 1684 km, 47.2° (Epoch: 02 October)

Event Time Altitude Azimuth Distance (km) Brightness Sun altitude
Rises 22:11:29 0° 285° (WNW) 4,704 12.5 -31.1°
Reaches altitude 10° 22:14:34 10° 286° (WNW) 3,705 11.8 -31.5°
Maximum altitude 22:23:55 84° 16° (NNE) 1,526 8.8 -32.8°
Enters shadow 22:25:10 71° 90° (E) 1,592 8.8 -33.0°
